Location: Strawberry
(45.6646°N, 111.9596°W)
Time: 22:30:39
(UTC+00:00)

Explorer 11/Cluster Stage 4 - Pass Details

Date: 08 October 2022
Orbit: 466 x 1248 km, 28.8° (Epoch: 28 November)

Event Time Altitude Azimuth Distance (km) Brightness Sun altitude
Rises 21:32:41 0° 252° (WSW) 4,144 11.1 29.8°
Reaches altitude 10° 21:39:21 10° 214° (SSW) 3,040 11.2 29.0°
Maximum altitude 21:40:09 10° 207° (SSW) 3,002 11.1 29.0°
Drops below altitude 10° 21:40:58 10° 201° (SSW) 2,992 10.9 28.9°
Sets 21:47:02 0° 161° (SSE) 3,718 10.4 28.1°
